Location: Newark
(46.7000°N, 60.6000°W)
Time: 00:36:03
(UTC+00:00)

A-11 Canister half - All Passes

Search period start: 27 October 2020 00:00
Search period end: 06 November 2020 00:00
Orbit: 1526 x 1683 km, 47.3° (Epoch: 26 October)

Date Brightness Start Highest point End Pass type
(mag) Time Alt. Az. Time Alt. Az. Time Alt. Az.
27 Oct - 01:10:14 10° WNW 01:18:51 44° SW 01:27:32 10° SSE visible
27 Oct - 03:18:22 10° W 03:21:54 13° WSW 03:25:28 10° SSW visible
27 Oct - 16:33:18 10° S 16:39:31 19° SE 16:45:37 10° E daylight
27 Oct - 18:33:44 10° SW 18:42:58 55° SSE 18:51:59 10° ENE daylight
27 Oct - 20:38:09 10° WSW 20:47:40 90° NNE 20:57:01 10° E daylight
27 Oct - 22:43:26 10° W 22:52:50 86° SSW 23:02:11 10° ESE visible
28 Oct - 00:48:35 10° WNW 00:57:16 46° SW 01:06:00 10° SSE visible
28 Oct - 02:56:15 10° W 03:00:22 14° SW 03:04:31 10° SSW visible
28 Oct - 16:12:02 10° SSE 16:17:58 18° SE 16:23:47 10° E daylight
28 Oct - 18:12:09 10° SW 18:21:21 53° SSE 18:30:20 10° ENE daylight
28 Oct - 20:16:28 10° WSW 20:26:01 89° S 20:35:23 10° E daylight
28 Oct - 22:21:46 10° W 22:31:12 87° SSW 22:40:32 10° ESE visible
29 Oct - 00:26:54 10° WNW 00:35:41 48° SW 00:44:28 10° SE visible
29 Oct - 02:34:14 10° W 02:38:50 15° SW 02:43:27 10° SSW visible
29 Oct - 15:50:48 10° SSE 15:56:24 17° SE 16:01:55 10° E daylight
29 Oct - 17:50:35 10° SW 17:59:45 52° SE 18:08:41 10° ENE daylight
29 Oct - 19:54:48 10° WSW 20:04:22 88° SSE 20:13:44 10° E daylight
29 Oct - 22:00:06 10° W 22:09:33 88° SSW 22:18:53 10° ESE visible
30 Oct - 00:05:15 10° WNW 00:14:05 50° SW 00:22:56 10° SE visible
30 Oct - 02:12:17 10° W 02:17:17 16° SW 02:22:20 10° SSW visible
30 Oct - 15:29:36 10° SSE 15:34:52 16° SE 15:40:02 10° E daylight
30 Oct - 17:29:00 10° SW 17:38:09 50° SE 17:47:03 10° ENE daylight
30 Oct - 19:33:08 10° WSW 19:42:43 87° SSE 19:52:05 10° E daylight
30 Oct - 21:38:26 10° W 21:47:54 89° SSW 21:57:15 10° ESE visible
30 Oct - 23:43:35 10° WNW 23:52:30 52° SW 00:01:23 10° SE visible
31 Oct - 01:50:23 10° W 01:55:45 17° SW 02:01:10 10° SSW visible
31 Oct - 15:08:27 10° SSE 15:13:19 15° SE 15:18:06 10° E daylight
31 Oct - 17:07:26 10° SSW 17:16:32 48° SE 17:25:24 10° ENE daylight
31 Oct - 19:11:27 10° WSW 19:21:04 86° SSE 19:30:27 10° E daylight
31 Oct - 21:16:46 10° W 21:26:15 90° SSW 21:35:36 10° ESE visible
31 Oct - 23:21:55 10° WNW 23:30:54 54° SSW 23:39:50 10° SE visible
01 Nov - 01:28:30 10° W 01:34:13 18° SW 01:39:57 10° SSW visible
01 Nov - 14:47:23 10° SSE 14:51:46 14° SE 14:56:05 10° E daylight
01 Nov - 16:45:53 10° SSW 16:54:56 46° SE 17:03:44 10° ENE daylight
01 Nov - 18:49:47 10° WSW 18:59:25 85° SSE 19:08:49 10° ENE daylight
01 Nov - 20:55:06 10° W 21:04:37 90° NNE 21:13:57 10° E daylight
01 Nov - 23:00:15 10° WNW 23:09:18 56° SSW 23:18:16 10° SE visible
02 Nov - 01:06:40 10° W 01:12:40 19° SW 01:18:43 10° S visible
02 Nov - 14:26:23 10° SSE 14:30:13 13° ESE 14:34:00 10° E daylight
02 Nov - 16:24:20 10° SSW 16:33:20 44° SE 16:42:05 10° ENE daylight
02 Nov - 18:28:07 10° WSW 18:37:46 84° SSE 18:47:10 10° ENE daylight
02 Nov - 20:33:25 10° W 20:42:58 89° N 20:52:19 10° E daylight
02 Nov - 22:38:36 10° WNW 22:47:42 58° SSW 22:56:42 10° SE visible
03 Nov - 00:44:50 10° W 00:51:08 21° SW 00:57:26 10° S visible
03 Nov - 14:05:31 10° SE 14:08:40 12° ESE 14:11:47 10° ESE daylight
03 Nov - 16:02:47 10° SSW 16:11:44 43° SE 16:20:26 10° ENE daylight
03 Nov - 18:06:27 10° WSW 18:16:07 82° SSE 18:25:32 10° ENE daylight
03 Nov - 20:11:44 10° W 20:21:19 88° N 20:30:40 10° E daylight
03 Nov - 22:16:56 10° WNW 22:26:05 60° SSW 22:35:08 10° SE visible
04 Nov - 00:23:02 10° W 00:29:35 22° SW 00:36:09 10° S visible
04 Nov - 13:44:55 10° SE 13:47:08 11° ESE 13:49:20 10° ESE daylight
04 Nov - 15:41:15 10° SSW 15:50:08 41° SE 15:58:46 10° ENE daylight
04 Nov - 17:44:47 10° WSW 17:54:28 81° SSE 18:03:53 10° ENE daylight
04 Nov - 19:50:04 10° W 19:59:40 88° N 20:09:01 10° E daylight
04 Nov - 21:55:16 10° WNW 22:04:29 62° SSW 22:13:34 10° SE visible
05 Nov - 00:01:15 10° W 00:08:02 23° SW 00:14:50 10° S visible
05 Nov - 15:19:43 10° SSW 15:28:32 39° SE 15:37:06 10° ENE daylight
05 Nov - 17:23:07 10° WSW 17:32:50 80° SSE 17:42:15 10° ENE daylight
05 Nov - 19:28:23 10° W 19:38:00 87° N 19:47:23 10° E daylight
05 Nov - 21:33:37 10° WNW 21:42:52 64° SSW 21:51:59 10° SE visible
05 Nov - 23:39:29 10° W 23:46:29 25° SW 23:53:29 10° S visible
